Time,TemperatureF,DewpointF,PressureIn,WindDirection,WindDirectionDegrees,WindSpeedMPH,WindSpeedGustMPH,Humidity,HourlyPrecipIn,Conditions,Clouds,dailyrainin,SoftwareType,DateUTC
2013-02-12 00:01:00,26.8,21.7,29.99,WSW,245,6.0,15.0,81,0.00,,,0.00,meteohub,2013-02-12 06:01:00,
2013-02-12 00:06:00,26.8,22.1,29.99,West,262,6.0,14.0,82,0.00,,,0.00,meteohub,2013-02-12 06:06:00,
2013-02-12 00:11:00,26.8,22.1,29.99,West,261,7.0,14.0,82,0.00,,,0.00,meteohub,2013-02-12 06:11:00,
2013-02-12 00:16:00,26.6,21.9,30.00,West,276,10.0,14.0,82,0.00,,,0.00,meteohub,2013-02-12 06:16:00,
2013-02-12 00:22:00,26.4,21.4,30.00,West,276,8.0,14.0,81,0.00,,,0.00,meteohub,2013-02-12 06:22:00,
2013-02-12 00:27:00,26.4,21.4,30.00,WNW,286,9.0,16.0,81,0.00,,,0.00,meteohub,2013-02-12 06:27:00,
2013-02-12 00:32:00,26.2,20.8,30.00,West,259,10.0,16.0,80,0.00,,,0.00,meteohub,2013-02-12 06:32:00,
2013-02-12 00:37:00,26.2,20.8,30.00,WSW,240,9.0,16.0,80,0.00,,,0.00,meteohub,2013-02-12 06:37:00,
2013-02-12 00:42:00,26.2,21.2,30.00,West,267,14.0,19.0,81,0.00,,,0.00,meteohub,2013-02-12 06:42:00,
2013-02-12 00:47:00,26.2,20.8,30.00,WNW,284,8.0,19.0,80,0.00,,,0.00,meteohub,2013-02-12 06:47:00,
2013-02-12 00:52:00,26.2,21.2,30.00,WNW,290,5.0,16.0,81,0.00,,,0.00,meteohub,2013-02-12 06:52:00,
2013-02-12 00:57:00,26.2,21.2,30.01,WSW,254,7.0,16.0,81,0.00,,,0.00,meteohub,2013-02-12 06:57:00,
2013-02-12 01:02:00,26.1,21.0,30.00,West,260,7.0,16.0,81,0.00,,,0.00,meteohub,2013-02-12 07:02:00,
2013-02-12 01:07:00,26.1,20.7,30.01,WSW,250,7.0,14.0,80,0.00,,,0.00,meteohub,2013-02-12 07:07:00,
2013-02-12 01:12:00,26.1,20.7,30.01,WSW,242,10.0,14.0,80,0.00,,,0.00,meteohub,2013-02-12 07:12:00,
2013-02-12 01:17:00,26.1,21.0,30.01,West,265,6.0,14.0,81,0.00,,,0.00,meteohub,2013-02-12 07:17:00,
2013-02-12 01:22:00,26.1,21.0,30.01,WNW,287,8.0,14.0,81,0.00,,,0.00,meteohub,2013-02-12 07:22:00,
2013-02-12 01:27:00,26.1,20.7,30.02,West,277,6.0,12.0,80,0.00,,,0.00,meteohub,2013-02-12 07:27:00,
2013-02-12 01:32:00,26.1,21.0,30.02,West,265,6.0,14.0,81,0.00,,,0.00,meteohub,2013-02-12 07:32:00,
2013-02-12 01:37:00,25.9,20.5,30.02,West,271,8.0,14.0,80,0.00,,,0.00,meteohub,2013-02-12 07:37:00,
2013-02-12 01:42:00,25.9,20.8,30.02,West,267,9.0,16.0,81,0.00,,,0.00,meteohub,2013-02-12 07:42:00,
2013-02-12 01:47:00,25.9,20.8,30.03,West,259,8.0,16.0,81,0.00,,,0.00,meteohub,2013-02-12 07:47:00,
2013-02-12 01:52:00,25.9,21.2,30.03,West,271,13.0,16.0,82,0.00,,,0.00,meteohub,2013-02-12 07:52:00,
2013-02-12 01:57:00,25.9,21.4,30.03,West,263,10.0,16.0,83,0.00,,,0.00,meteohub,2013-02-12 07:57:00,
2013-02-12 02:02:00,25.9,21.2,30.03,West,263,10.0,15.0,82,0.00,,,0.00,meteohub,2013-02-12 08:02:00,
2013-02-12 02:07:00,25.7,21.2,30.03,WSW,251,12.0,17.0,83,0.00,,,0.00,meteohub,2013-02-12 08:07:00,
2013-02-12 02:12:00,25.5,21.4,30.03,WSW,244,11.0,17.0,84,0.00,,,0.00,meteohub,2013-02-12 08:12:00,
2013-02-12 02:17:00,25.3,21.2,30.03,West,263,8.0,15.0,84,0.00,,,0.00,meteohub,2013-02-12 08:17:00,
2013-02-12 02:22:00,25.3,21.4,30.03,WSW,242,9.0,15.0,85,0.00,,,0.00,meteohub,2013-02-12 08:22:00,
2013-02-12 02:27:00,25.2,21.4,30.03,WSW,256,9.0,15.0,85,0.00,,,0.00,meteohub,2013-02-12 08:27:00,
2013-02-12 02:32:00,25.2,21.4,30.03,West,261,7.0,16.0,85,0.00,,,0.00,meteohub,2013-02-12 08:32:00,
2013-02-12 02:37:00,25.2,21.4,30.04,WSW,250,9.0,20.0,85,0.00,,,0.00,meteohub,2013-02-12 08:37:00,
2013-02-12 02:42:00,25.2,21.4,30.04,West,262,9.0,20.0,85,0.00,,,0.00,meteohub,2013-02-12 08:42:00,
2013-02-12 02:47:00,25.0,21.2,30.04,WSW,254,6.0,17.0,85,0.00,,,0.00,meteohub,2013-02-12 08:47:00,
2013-02-12 02:52:00,24.8,21.0,30.04,WSW,257,10.0,17.0,85,0.00,,,0.00,meteohub,2013-02-12 08:52:00,
2013-02-12 02:57:00,24.8,21.0,30.04,WSW,255,9.0,17.0,85,0.00,,,0.00,meteohub,2013-02-12 08:57:00,
2013-02-12 03:03:00,24.6,20.8,30.04,WSW,251,11.0,17.0,85,0.00,,,0.00,meteohub,2013-02-12 09:03:00,
2013-02-12 03:08:00,24.6,20.8,30.04,WSW,248,7.0,17.0,85,0.00,,,0.00,meteohub,2013-02-12 09:08:00,
2013-02-12 03:13:00,24.4,20.7,30.04,WSW,253,5.0,17.0,85,0.00,,,0.00,meteohub,2013-02-12 09:13:00,
2013-02-12 03:18:00,24.4,20.7,30.04,WSW,244,15.0,16.0,85,0.00,,,0.00,meteohub,2013-02-12 09:18:00,
2013-02-12 03:23:00,24.4,20.7,30.04,WSW,245,11.0,17.0,85,0.00,,,0.00,meteohub,2013-02-12 09:23:00,
2013-02-12 03:28:00,24.3,20.5,30.04,WSW,249,8.0,17.0,85,0.00,,,0.00,meteohub,2013-02-12 09:28:00,
2013-02-12 03:34:00,24.3,20.5,30.04,WSW,244,12.0,17.0,85,0.00,,,0.00,meteohub,2013-02-12 09:34:00,
2013-02-12 03:39:00,24.1,20.3,30.04,West,271,8.0,18.0,85,0.00,,,0.00,meteohub,2013-02-12 09:39:00,
2013-02-12 03:44:00,24.1,20.3,30.04,WSW,241,14.0,19.0,85,0.00,,,0.00,meteohub,2013-02-12 09:44:00,
2013-02-12 03:49:00,24.1,20.3,30.05,WSW,250,8.0,19.0,85,0.00,,,0.00,meteohub,2013-02-12 09:49:00,
2013-02-12 03:54:00,24.1,20.3,30.05,WSW,255,8.0,19.0,85,0.00,,,0.00,meteohub,2013-02-12 09:54:00,
2013-02-12 03:59:00,23.9,20.1,30.05,WSW,242,11.0,16.0,85,0.00,,,0.00,meteohub,2013-02-12 09:59:00,
2013-02-12 04:05:00,23.7,19.9,30.05,WSW,239,12.0,17.0,85,0.00,,,0.00,meteohub,2013-02-12 10:05:00,
2013-02-12 04:10:00,23.7,19.9,30.05,WSW,256,15.0,17.0,85,0.00,,,0.00,meteohub,2013-02-12 10:10:00,
2013-02-12 04:15:00,23.5,19.8,30.05,WSW,244,11.0,15.0,85,0.00,,,0.00,meteohub,2013-02-12 10:15:00,
2013-02-12 04:20:00,23.5,19.4,30.05,WSW,256,7.0,15.0,84,0.00,,,0.00,meteohub,2013-02-12 10:20:00,
2013-02-12 04:25:00,23.5,19.4,30.05,WSW,245,10.0,14.0,84,0.00,,,0.00,meteohub,2013-02-12 10:25:00,
2013-02-12 04:30:00,23.5,19.8,30.05,WSW,239,11.0,15.0,85,0.00,,,0.00,meteohub,2013-02-12 10:30:00,
2013-02-12 04:35:00,23.4,19.6,30.05,WSW,241,13.0,16.0,85,0.00,,,0.00,meteohub,2013-02-12 10:35:00,
2013-02-12 04:41:00,23.2,19.4,30.06,WSW,244,10.0,19.0,85,0.00,,,0.00,meteohub,2013-02-12 10:41:00,
2013-02-12 04:46:00,22.8,19.0,30.06,SW,236,12.0,19.0,85,0.00,,,0.00,meteohub,2013-02-12 10:46:00,
2013-02-12 04:51:00,22.6,18.9,30.06,West,265,11.0,18.0,85,0.00,,,0.00,meteohub,2013-02-12 10:51:00,
2013-02-12 04:56:00,22.6,18.9,30.06,West,261,15.0,17.0,85,0.00,,,0.00,meteohub,2013-02-12 10:56:00,
2013-02-12 05:01:00,22.6,18.9,30.06,West,259,13.0,16.0,85,0.00,,,0.00,meteohub,2013-02-12 11:01:00,
2013-02-12 05:06:00,22.5,18.7,30.07,WSW,254,7.0,19.0,85,0.00,,,0.00,meteohub,2013-02-12 11:06:00,
2013-02-12 05:12:00,22.5,18.7,30.07,WSW,250,10.0,19.0,85,0.00,,,0.00,meteohub,2013-02-12 11:12:00,
2013-02-12 05:17:00,22.5,18.7,30.06,WSW,254,8.0,19.0,85,0.00,,,0.00,meteohub,2013-02-12 11:17:00,
2013-02-12 05:22:00,22.5,18.7,30.06,West,277,6.0,14.0,85,0.00,,,0.00,meteohub,2013-02-12 11:22:00,
2013-02-12 05:27:00,22.5,18.7,30.07,WSW,249,13.0,14.0,85,0.00,,,0.00,meteohub,2013-02-12 11:27:00,
2013-02-12 05:32:00,22.5,18.7,30.06,West,259,7.0,13.0,85,0.00,,,0.00,meteohub,2013-02-12 11:32:00,
2013-02-12 05:37:00,22.5,18.7,30.06,WSW,247,12.0,13.0,85,0.00,,,0.00,meteohub,2013-02-12 11:37:00,
2013-02-12 05:42:00,22.5,18.7,30.06,West,264,8.0,13.0,85,0.00,,,0.00,meteohub,2013-02-12 11:42:00,
2013-02-12 05:47:00,22.5,18.9,30.06,West,268,8.0,12.0,86,0.00,,,0.00,meteohub,2013-02-12 11:47:00,
2013-02-12 05:52:00,22.3,18.7,30.07,SW,234,11.0,13.0,86,0.00,,,0.00,meteohub,2013-02-12 11:52:00,
2013-02-12 05:58:00,22.3,18.7,30.06,WSW,239,7.0,14.0,86,0.00,,,0.00,meteohub,2013-02-12 11:58:00,
2013-02-12 06:03:00,22.1,18.5,30.06,WSW,249,7.0,14.0,86,0.00,,,0.00,meteohub,2013-02-12 12:03:00,
2013-02-12 06:08:00,21.9,18.3,30.06,WSW,242,7.0,14.0,86,0.00,,,0.00,meteohub,2013-02-12 12:08:00,
2013-02-12 06:13:00,21.9,18.3,30.06,WSW,254,10.0,13.0,86,0.00,,,0.00,meteohub,2013-02-12 12:13:00,
2013-02-12 06:18:00,21.9,18.3,30.06,WSW,245,6.0,13.0,86,0.00,,,0.00,meteohub,2013-02-12 12:18:00,
2013-02-12 06:23:00,21.9,18.3,30.07,WSW,244,9.0,13.0,86,0.00,,,0.00,meteohub,2013-02-12 12:23:00,
2013-02-12 06:29:00,21.9,18.7,30.07,WSW,254,9.0,13.0,87,0.00,,,0.00,meteohub,2013-02-12 12:29:00,
2013-02-12 06:34:00,21.7,18.1,30.07,WSW,243,11.0,13.0,86,0.00,,,0.00,meteohub,2013-02-12 12:34:00,
2013-02-12 06:39:00,21.7,18.5,30.07,WSW,247,7.0,13.0,87,0.00,,,0.00,meteohub,2013-02-12 12:39:00,
2013-02-12 06:44:00,21.7,18.1,30.07,WSW,238,11.0,14.0,86,0.00,,,0.00,meteohub,2013-02-12 12:44:00,
2013-02-12 06:49:00,21.6,18.3,30.06,WSW,246,7.0,14.0,87,0.00,,,0.00,meteohub,2013-02-12 12:49:00,
2013-02-12 06:54:00,21.6,18.3,30.06,WSW,240,11.0,14.0,87,0.00,,,0.00,meteohub,2013-02-12 12:54:00,
2013-02-12 07:00:00,21.6,18.3,30.06,WSW,246,8.0,14.0,87,0.00,,,0.00,meteohub,2013-02-12 13:00:00,
2013-02-12 07:05:00,21.4,18.1,30.07,WSW,246,13.0,15.0,87,0.00,,,0.00,meteohub,2013-02-12 13:05:00,
2013-02-12 07:10:00,21.4,18.1,30.06,WSW,237,12.0,16.0,87,0.00,,,0.00,meteohub,2013-02-12 13:10:00,
2013-02-12 07:15:00,21.2,17.6,30.07,WSW,238,5.0,16.0,86,0.00,,,0.00,meteohub,2013-02-12 13:15:00,
2013-02-12 07:20:00,21.0,17.4,30.07,West,263,6.0,15.0,86,0.00,,,0.00,meteohub,2013-02-12 13:20:00,
2013-02-12 07:26:00,21.2,17.6,30.07,WSW,244,7.0,14.0,86,0.00,,,0.00,meteohub,2013-02-12 13:26:00,
2013-02-12 07:31:00,21.2,17.6,30.07,WNW,286,6.0,12.0,86,0.00,,,0.00,meteohub,2013-02-12 13:31:00,
2013-02-12 07:36:00,21.2,17.6,30.07,West,263,6.0,12.0,86,0.00,,,0.00,meteohub,2013-02-12 13:36:00,
2013-02-12 07:41:00,21.4,17.8,30.07,West,280,8.0,12.0,86,0.00,,,0.00,meteohub,2013-02-12 13:41:00,
2013-02-12 07:46:00,21.2,17.6,30.08,West,267,9.0,13.0,86,0.00,,,0.00,meteohub,2013-02-12 13:46:00,
2013-02-12 07:52:00,21.2,17.6,30.07,West,261,5.0,14.0,86,0.00,,,0.00,meteohub,2013-02-12 13:52:00,
2013-02-12 07:57:00,21.0,17.4,30.08,SW,234,10.0,14.0,86,0.00,,,0.00,meteohub,2013-02-12 13:57:00,
2013-02-12 08:02:00,21.0,17.4,30.08,WSW,238,9.0,14.0,86,0.00,,,0.00,meteohub,2013-02-12 14:02:00,
2013-02-12 08:07:00,21.0,17.4,30.08,SW,234,10.0,15.0,86,0.00,,,0.00,meteohub,2013-02-12 14:07:00,
2013-02-12 08:12:00,21.0,17.4,30.08,SW,235,9.0,15.0,86,0.00,,,0.00,meteohub,2013-02-12 14:12:00,
2013-02-12 08:17:00,21.0,17.2,30.09,WSW,240,10.0,16.0,85,0.00,,,0.00,meteohub,2013-02-12 14:17:00,
2013-02-12 08:22:00,21.0,17.2,30.09,West,259,10.0,16.0,85,0.00,,,0.00,meteohub,2013-02-12 14:22:00,
2013-02-12 08:27:00,21.0,17.2,30.09,SW,233,12.0,16.0,85,0.00,,,0.00,meteohub,2013-02-12 14:27:00,
2013-02-12 08:32:00,21.0,17.2,30.09,SW,236,9.0,15.0,85,0.00,,,0.00,meteohub,2013-02-12 14:32:00,
2013-02-12 08:37:00,21.2,17.4,30.09,WSW,240,9.0,14.0,85,0.00,,,0.00,meteohub,2013-02-12 14:37:00,
2013-02-12 08:42:00,21.2,17.4,30.10,West,261,10.0,16.0,85,0.00,,,0.00,meteohub,2013-02-12 14:42:00,
2013-02-12 08:47:00,21.2,17.1,30.10,WNW,286,6.0,16.0,84,0.00,,,0.00,meteohub,2013-02-12 14:47:00,
2013-02-12 08:52:00,21.4,17.1,30.10,West,261,10.0,16.0,83,0.00,,,0.00,meteohub,2013-02-12 14:52:00,
2013-02-12 08:57:00,21.6,17.4,30.10,WSW,258,8.0,17.0,84,0.00,,,0.00,meteohub,2013-02-12 14:57:00,
2013-02-12 09:02:00,21.6,17.4,30.10,WSW,242,9.0,17.0,84,0.00,,,0.00,meteohub,2013-02-12 15:02:00,
2013-02-12 09:07:00,21.6,17.4,30.10,SW,232,12.0,13.0,84,0.00,,,0.00,meteohub,2013-02-12 15:07:00,
2013-02-12 09:12:00,21.6,17.2,30.10,WSW,254,7.0,15.0,83,0.00,,,0.00,meteohub,2013-02-12 15:12:00,
2013-02-12 09:17:00,21.6,17.2,30.10,WSW,246,11.0,16.0,83,0.00,,,0.00,meteohub,2013-02-12 15:17:00,
2013-02-12 09:22:00,21.7,17.4,30.09,WSW,255,8.0,16.0,83,0.00,,,0.00,meteohub,2013-02-12 15:22:00,
2013-02-12 09:27:00,21.7,17.4,30.09,WSW,243,13.0,16.0,83,0.00,,,0.00,meteohub,2013-02-12 15:27:00,
2013-02-12 09:32:00,21.7,17.1,30.09,WSW,252,12.0,15.0,82,0.00,,,0.00,meteohub,2013-02-12 15:32:00,
2013-02-12 09:37:00,21.7,17.4,30.09,WSW,242,7.0,16.0,83,0.00,,,0.00,meteohub,2013-02-12 15:37:00,
2013-02-12 09:42:00,21.7,17.4,30.09,West,264,7.0,16.0,83,0.00,,,0.00,meteohub,2013-02-12 15:42:00,
2013-02-12 09:47:00,21.9,17.2,30.09,West,270,8.0,16.0,82,0.00,,,0.00,meteohub,2013-02-12 15:47:00,
2013-02-12 09:53:00,21.9,17.2,30.09,WSW,244,8.0,16.0,82,0.00,,,0.00,meteohub,2013-02-12 15:53:00,
2013-02-12 09:58:00,22.1,17.8,30.09,WSW,258,10.0,15.0,83,0.00,,,0.00,meteohub,2013-02-12 15:58:00,
2013-02-12 10:03:00,21.9,17.1,30.09,West,259,9.0,13.0,81,0.00,,,0.00,meteohub,2013-02-12 16:03:00,
2013-02-12 10:08:00,22.1,17.4,30.09,West,259,9.0,16.0,82,0.00,,,0.00,meteohub,2013-02-12 16:08:00,
2013-02-12 10:13:00,22.3,17.4,30.08,WSW,252,4.0,16.0,81,0.00,,,0.00,meteohub,2013-02-12 16:13:00,
2013-02-12 10:18:00,22.5,17.8,30.08,West,267,7.0,15.0,82,0.00,,,0.00,meteohub,2013-02-12 16:18:00,
2013-02-12 10:24:00,22.3,17.4,30.08,WSW,240,12.0,15.0,81,0.00,,,0.00,meteohub,2013-02-12 16:24:00,
2013-02-12 10:29:00,22.3,17.1,30.07,WSW,242,9.0,16.0,80,0.00,,,0.00,meteohub,2013-02-12 16:29:00,
2013-02-12 10:34:00,22.5,17.6,30.07,West,276,8.0,16.0,81,0.00,,,0.00,meteohub,2013-02-12 16:34:00,
2013-02-12 10:39:00,22.6,17.8,30.07,West,266,7.0,16.0,81,0.00,,,0.00,meteohub,2013-02-12 16:39:00,
2013-02-12 10:44:00,22.8,18.0,30.07,West,269,8.0,14.0,81,0.00,,,0.00,meteohub,2013-02-12 16:44:00,
2013-02-12 10:49:00,22.8,17.6,30.07,West,275,5.0,12.0,80,0.00,,,0.00,meteohub,2013-02-12 16:49:00,
2013-02-12 10:55:00,22.8,17.2,30.07,West,273,4.0,12.0,79,0.00,,,0.00,meteohub,2013-02-12 16:55:00,
2013-02-12 11:00:00,23.4,18.3,30.07,West,278,8.0,12.0,81,0.00,,,0.00,meteohub,2013-02-12 17:00:00,
2013-02-12 11:05:00,23.4,18.1,30.06,West,265,5.0,12.0,80,0.00,,,0.00,meteohub,2013-02-12 17:05:00,
2013-02-12 11:10:00,23.5,18.3,30.06,West,271,4.0,12.0,80,0.00,,,0.00,meteohub,2013-02-12 17:10:00,
2013-02-12 11:15:00,23.7,18.5,30.06,SW,229,8.0,12.0,80,0.00,,,0.00,meteohub,2013-02-12 17:15:00,
2013-02-12 11:20:00,23.5,18.3,30.06,WSW,242,8.0,14.0,80,0.00,,,0.00,meteohub,2013-02-12 17:20:00,
2013-02-12 11:26:00,23.5,18.3,30.06,West,267,7.0,14.0,80,0.00,,,0.00,meteohub,2013-02-12 17:26:00,
2013-02-12 11:31:00,23.7,18.5,30.06,WSW,242,9.0,14.0,80,0.00,,,0.00,meteohub,2013-02-12 17:31:00,
2013-02-12 11:36:00,23.9,18.7,30.06,West,259,7.0,12.0,80,0.00,,,0.00,meteohub,2013-02-12 17:36:00,
2013-02-12 11:41:00,23.7,18.1,30.06,West,261,8.0,12.0,79,0.00,,,0.00,meteohub,2013-02-12 17:41:00,
2013-02-12 11:46:00,23.7,18.5,30.06,SW,229,6.0,14.0,80,0.00,,,0.00,meteohub,2013-02-12 17:46:00,
2013-02-12 11:51:00,24.3,19.0,30.05,WSW,249,9.0,14.0,80,0.00,,,0.00,meteohub,2013-02-12 17:51:00,
2013-02-12 11:56:00,24.1,18.5,30.05,SW,234,9.0,19.0,79,0.00,,,0.00,meteohub,2013-02-12 17:56:00,
2013-02-12 12:02:00,24.1,18.5,30.05,WSW,249,9.0,19.0,79,0.00,,,0.00,meteohub,2013-02-12 18:02:00,
2013-02-12 12:07:00,24.6,19.0,30.05,SW,232,9.0,19.0,79,0.00,,,0.00,meteohub,2013-02-12 18:07:00,
2013-02-12 12:12:00,25.0,19.0,30.04,WSW,242,10.0,14.0,78,0.00,,,0.00,meteohub,2013-02-12 18:12:00,
2013-02-12 12:17:00,24.6,18.7,30.04,WSW,242,8.0,16.0,78,0.00,,,0.00,meteohub,2013-02-12 18:17:00,
2013-02-12 12:22:00,24.6,18.7,30.04,SW,215,11.0,16.0,78,0.00,,,0.00,meteohub,2013-02-12 18:22:00,
2013-02-12 12:27:00,24.4,18.5,30.04,SW,221,12.0,16.0,78,0.00,,,0.00,meteohub,2013-02-12 18:27:00,
2013-02-12 12:32:00,24.4,18.5,30.03,SW,234,8.0,16.0,78,0.00,,,0.00,meteohub,2013-02-12 18:32:00,
2013-02-12 12:37:00,24.8,19.2,30.03,SW,234,9.0,15.0,79,0.00,,,0.00,meteohub,2013-02-12 18:37:00,
2013-02-12 12:42:00,24.6,18.7,30.03,SW,221,10.0,15.0,78,0.00,,,0.00,meteohub,2013-02-12 18:42:00,
2013-02-12 12:47:00,25.2,19.2,30.02,WSW,239,13.0,16.0,78,0.00,,,0.00,meteohub,2013-02-12 18:47:00,
2013-02-12 12:52:00,24.8,18.9,30.02,SW,236,13.0,16.0,78,0.00,,,0.00,meteohub,2013-02-12 18:52:00,
2013-02-12 12:57:00,25.7,20.1,30.02,SW,223,10.0,16.0,79,0.00,,,0.00,meteohub,2013-02-12 18:57:00,
2013-02-12 13:02:00,25.5,19.6,30.02,SW,223,7.0,16.0,78,0.00,,,0.00,meteohub,2013-02-12 19:02:00,
2013-02-12 13:07:00,25.2,19.0,30.02,SW,225,13.0,15.0,77,0.00,,,0.00,meteohub,2013-02-12 19:07:00,
2013-02-12 13:12:00,25.2,19.2,30.01,SW,227,14.0,26.0,78,0.00,,,0.00,meteohub,2013-02-12 19:12:00,
2013-02-12 13:17:00,25.0,18.9,30.01,SW,219,13.0,26.0,77,0.00,,,0.00,meteohub,2013-02-12 19:17:00,
2013-02-12 13:22:00,25.0,19.0,30.01,SW,215,14.0,18.0,78,0.00,,,0.00,meteohub,2013-02-12 19:22:00,
2013-02-12 13:27:00,25.0,19.0,30.01,SW,232,13.0,17.0,78,0.00,,,0.00,meteohub,2013-02-12 19:27:00,
2013-02-12 13:32:00,25.0,19.4,30.01,SW,225,11.0,17.0,79,0.00,,,0.00,meteohub,2013-02-12 19:32:00,
2013-02-12 13:37:00,25.0,19.4,30.01,SW,229,13.0,17.0,79,0.00,,,0.00,meteohub,2013-02-12 19:37:00,
2013-02-12 13:42:00,25.0,19.4,30.01,WSW,237,13.0,17.0,79,0.00,,,0.00,meteohub,2013-02-12 19:42:00,
2013-02-12 13:47:00,25.0,19.4,30.01,SW,229,7.0,17.0,79,0.00,,,0.00,meteohub,2013-02-12 19:47:00,
2013-02-12 13:52:00,25.2,19.9,30.01,WSW,248,6.0,17.0,80,0.00,,,0.00,meteohub,2013-02-12 19:52:00,
2013-02-12 13:57:00,25.5,19.9,30.01,SW,233,14.0,17.0,79,0.00,,,0.00,meteohub,2013-02-12 19:57:00,
2013-02-12 14:02:00,25.5,19.9,30.01,SW,218,13.0,17.0,79,0.00,,,0.00,meteohub,2013-02-12 20:02:00,
2013-02-12 14:07:00,25.5,19.9,30.01,SW,219,14.0,18.0,79,0.00,,,0.00,meteohub,2013-02-12 20:07:00,
2013-02-12 14:12:00,25.7,20.1,30.01,SW,222,16.0,18.0,79,0.00,,,0.00,meteohub,2013-02-12 20:12:00,
2013-02-12 14:17:00,25.3,19.4,30.01,SW,229,9.0,18.0,78,0.00,,,0.00,meteohub,2013-02-12 20:17:00,
2013-02-12 14:22:00,25.3,19.4,30.00,WSW,240,15.0,18.0,78,0.00,,,0.00,meteohub,2013-02-12 20:22:00,
2013-02-12 14:27:00,25.2,19.6,30.00,SW,222,15.0,18.0,79,0.00,,,0.00,meteohub,2013-02-12 20:27:00,
2013-02-12 14:32:00,25.5,19.9,30.00,WSW,242,8.0,18.0,79,0.00,,,0.00,meteohub,2013-02-12 20:32:00,
2013-02-12 14:37:00,25.3,19.4,30.00,SW,220,9.0,18.0,78,0.00,,,0.00,meteohub,2013-02-12 20:37:00,
2013-02-12 14:42:00,25.3,19.4,30.00,SW,234,10.0,19.0,78,0.00,,,0.00,meteohub,2013-02-12 20:42:00,
2013-02-12 14:47:00,25.2,19.2,30.00,SW,228,11.0,19.0,78,0.00,,,0.00,meteohub,2013-02-12 20:47:00,
2013-02-12 14:52:00,25.5,19.6,29.99,SW,225,7.0,17.0,78,0.00,,,0.00,meteohub,2013-02-12 20:52:00,
2013-02-12 14:57:00,25.9,19.9,29.99,WSW,239,11.0,17.0,78,0.00,,,0.00,meteohub,2013-02-12 20:57:00,
2013-02-12 15:02:00,26.1,20.5,29.99,SW,229,8.0,16.0,79,0.00,,,0.00,meteohub,2013-02-12 21:02:00,
2013-02-12 15:08:00,26.2,20.3,30.00,SW,232,10.0,16.0,78,0.00,,,0.00,meteohub,2013-02-12 21:08:00,
2013-02-12 15:13:00,25.9,19.8,30.00,WSW,248,10.0,17.0,77,0.00,,,0.00,meteohub,2013-02-12 21:13:00,
2013-02-12 15:18:00,26.1,20.1,30.00,SW,231,10.0,17.0,78,0.00,,,0.00,meteohub,2013-02-12 21:18:00,
2013-02-12 15:23:00,26.1,20.1,30.00,SW,221,12.0,17.0,78,0.00,,,0.00,meteohub,2013-02-12 21:23:00,
2013-02-12 15:28:00,26.2,20.3,30.00,SW,223,13.0,16.0,78,0.00,,,0.00,meteohub,2013-02-12 21:28:00,
2013-02-12 15:33:00,26.2,20.3,30.00,WSW,237,10.0,16.0,78,0.00,,,0.00,meteohub,2013-02-12 21:33:00,
2013-02-12 15:39:00,26.2,20.7,29.99,SW,229,9.0,16.0,79,0.00,,,0.00,meteohub,2013-02-12 21:39:00,
2013-02-12 15:44:00,26.4,20.8,29.99,SW,229,9.0,15.0,79,0.00,,,0.00,meteohub,2013-02-12 21:44:00,
2013-02-12 15:49:00,26.2,20.3,29.99,SW,235,11.0,15.0,78,0.00,,,0.00,meteohub,2013-02-12 21:49:00,
2013-02-12 15:54:00,26.1,20.1,29.99,SW,233,10.0,13.0,78,0.00,,,0.00,meteohub,2013-02-12 21:54:00,
2013-02-12 15:59:00,26.1,20.1,29.99,WSW,244,10.0,13.0,78,0.00,,,0.00,meteohub,2013-02-12 21:59:00,
2013-02-12 16:04:00,26.2,20.3,29.99,WSW,240,9.0,14.0,78,0.00,,,0.00,meteohub,2013-02-12 22:04:00,
2013-02-12 16:10:00,26.2,20.3,29.99,SW,233,8.0,14.0,78,0.00,,,0.00,meteohub,2013-02-12 22:10:00,
2013-02-12 16:15:00,26.2,20.7,29.99,SW,235,8.0,12.0,79,0.00,,,0.00,meteohub,2013-02-12 22:15:00,
2013-02-12 16:20:00,26.2,20.7,29.99,SW,226,6.0,12.0,79,0.00,,,0.00,meteohub,2013-02-12 22:20:00,
2013-02-12 16:25:00,26.2,20.7,29.98,SSW,208,7.0,10.0,79,0.00,,,0.00,meteohub,2013-02-12 22:25:00,
2013-02-12 16:31:00,26.1,20.5,29.98,SW,215,6.0,10.0,79,0.00,,,0.00,meteohub,2013-02-12 22:31:00,
2013-02-12 16:36:00,26.1,20.5,29.98,SSW,213,8.0,10.0,79,0.00,,,0.00,meteohub,2013-02-12 22:36:00,
2013-02-12 16:41:00,25.9,20.3,29.98,SSW,213,8.0,10.0,79,0.00,,,0.00,meteohub,2013-02-12 22:41:00,
2013-02-12 16:46:00,25.7,20.5,29.98,SSW,206,7.0,11.0,80,0.00,,,0.00,meteohub,2013-02-12 22:46:00,
2013-02-12 16:51:00,25.7,20.5,29.97,SSW,213,6.0,11.0,80,0.00,,,0.00,meteohub,2013-02-12 22:51:00,
2013-02-12 16:57:00,25.5,20.3,29.98,SSW,207,6.0,11.0,80,0.00,,,0.00,meteohub,2013-02-12 22:57:00,
2013-02-12 17:02:00,25.5,20.5,29.97,SSW,205,5.0,10.0,81,0.00,,,0.00,meteohub,2013-02-12 23:02:00,
2013-02-12 17:07:00,25.3,20.3,29.97,SSW,207,7.0,9.0,81,0.00,,,0.00,meteohub,2013-02-12 23:07:00,
2013-02-12 17:12:00,25.2,20.1,29.97,SSW,207,5.0,9.0,81,0.00,,,0.00,meteohub,2013-02-12 23:12:00,
2013-02-12 17:17:00,25.0,19.9,29.97,SSW,209,5.0,8.0,81,0.00,,,0.00,meteohub,2013-02-12 23:17:00,
2013-02-12 17:22:00,24.8,20.1,29.97,SSW,209,5.0,8.0,82,0.00,,,0.00,meteohub,2013-02-12 23:22:00,
2013-02-12 17:27:00,24.3,19.8,29.97,SSW,209,5.0,8.0,83,0.00,,,0.00,meteohub,2013-02-12 23:27:00,
2013-02-12 17:32:00,24.1,19.8,29.96,SSW,199,7.0,7.0,83,0.00,,,0.00,meteohub,2013-02-12 23:32:00,
2013-02-12 17:38:00,24.1,19.8,29.96,SSW,198,6.0,7.0,83,0.00,,,0.00,meteohub,2013-02-12 23:38:00,
2013-02-12 17:43:00,23.7,19.6,29.96,SSW,198,6.0,7.0,84,0.00,,,0.00,meteohub,2013-02-12 23:43:00,
2013-02-12 17:48:00,23.7,19.6,29.96,SSW,198,6.0,7.0,84,0.00,,,0.00,meteohub,2013-02-12 23:48:00,
2013-02-12 17:53:00,23.7,19.6,29.96,SSW,198,7.0,7.0,84,0.00,,,0.00,meteohub,2013-02-12 23:53:00,
2013-02-12 17:58:00,24.1,19.9,29.96,SSW,192,9.0,9.0,84,0.00,,,0.00,meteohub,2013-02-12 23:58:00,
2013-02-12 18:04:00,24.3,20.1,29.96,South,184,10.0,11.0,84,0.00,,,0.00,meteohub,2013-02-13 00:04:00,
2013-02-12 18:09:00,24.3,20.1,29.96,South,189,6.0,13.0,84,0.00,,,0.00,meteohub,2013-02-13 00:09:00,
2013-02-12 18:14:00,24.3,20.1,29.96,South,180,9.0,13.0,84,0.00,,,0.00,meteohub,2013-02-13 00:14:00,
2013-02-12 18:19:00,24.1,19.9,29.96,SSW,192,7.0,13.0,84,0.00,,,0.00,meteohub,2013-02-13 00:19:00,
2013-02-12 18:24:00,23.7,19.9,29.96,South,191,7.0,12.0,85,0.00,,,0.00,meteohub,2013-02-13 00:24:00,
2013-02-12 18:29:00,23.7,20.1,29.96,SSW,194,7.0,12.0,86,0.00,,,0.00,meteohub,2013-02-13 00:29:00,
2013-02-12 18:35:00,23.7,20.1,29.96,SSW,192,7.0,12.0,86,0.00,,,0.00,meteohub,2013-02-13 00:35:00,
2013-02-12 18:40:00,23.7,20.1,29.96,SSW,213,9.0,13.0,86,0.00,,,0.00,meteohub,2013-02-13 00:40:00,
2013-02-12 18:45:00,23.7,20.1,29.96,SSW,199,7.0,13.0,86,0.00,,,0.00,meteohub,2013-02-13 00:45:00,
2013-02-12 18:50:00,23.5,19.9,29.96,SSW,192,7.0,11.0,86,0.00,,,0.00,meteohub,2013-02-13 00:50:00,
2013-02-12 18:56:00,23.4,19.8,29.96,South,191,6.0,11.0,86,0.00,,,0.00,meteohub,2013-02-13 00:56:00,
2013-02-12 19:01:00,23.4,19.8,29.96,SSW,193,9.0,10.0,86,0.00,,,0.00,meteohub,2013-02-13 01:01:00,
2013-02-12 19:06:00,23.4,20.1,29.96,SSW,192,8.0,10.0,87,0.00,,,0.00,meteohub,2013-02-13 01:06:00,
2013-02-12 19:11:00,23.4,20.1,29.96,South,188,8.0,10.0,87,0.00,,,0.00,meteohub,2013-02-13 01:11:00,
2013-02-12 19:17:00,23.2,19.9,29.96,SSW,194,7.0,11.0,87,0.00,,,0.00,meteohub,2013-02-13 01:17:00,
2013-02-12 19:22:00,23.2,19.9,29.96,SSW,195,8.0,11.0,87,0.00,,,0.00,meteohub,2013-02-13 01:22:00,
2013-02-12 19:27:00,23.2,19.9,29.96,SSW,198,7.0,11.0,87,0.00,,,0.00,meteohub,2013-02-13 01:27:00,
2013-02-12 19:32:00,23.2,19.9,29.96,South,189,10.0,12.0,87,0.00,,,0.00,meteohub,2013-02-13 01:32:00,
2013-02-12 19:37:00,23.0,19.8,29.96,South,176,9.0,12.0,87,0.00,,,0.00,meteohub,2013-02-13 01:37:00,
2013-02-12 19:42:00,23.0,19.8,29.96,South,188,10.0,14.0,87,0.00,,,0.00,meteohub,2013-02-13 01:42:00,
2013-02-12 19:47:00,22.8,19.6,29.95,SSW,195,10.0,14.0,87,0.00,,,0.00,meteohub,2013-02-13 01:47:00,
2013-02-12 19:52:00,22.8,19.6,29.95,South,191,12.0,14.0,87,0.00,,,0.00,meteohub,2013-02-13 01:52:00,
2013-02-12 19:57:00,22.8,19.6,29.95,South,190,10.0,13.0,87,0.00,,,0.00,meteohub,2013-02-13 01:57:00,
2013-02-12 20:02:00,22.6,19.4,29.95,SSW,192,8.0,13.0,87,0.00,,,0.00,meteohub,2013-02-13 02:02:00,
2013-02-12 20:07:00,22.6,19.4,29.95,SSW,198,7.0,13.0,87,0.00,,,0.00,meteohub,2013-02-13 02:07:00,
2013-02-12 20:12:00,22.6,19.4,29.95,South,183,12.0,13.0,87,0.00,,,0.00,meteohub,2013-02-13 02:12:00,
2013-02-12 20:17:00,22.6,19.4,29.94,South,190,10.0,13.0,87,0.00,,,0.00,meteohub,2013-02-13 02:17:00,
2013-02-12 20:22:00,22.6,19.4,29.94,SSW,193,7.0,13.0,87,0.00,,,0.00,meteohub,2013-02-13 02:22:00,
2013-02-12 20:27:00,22.5,19.2,29.94,SSW,194,10.0,12.0,87,0.00,,,0.00,meteohub,2013-02-13 02:27:00,
2013-02-12 20:32:00,22.6,19.6,29.94,SSW,192,8.0,12.0,88,0.00,,,0.00,meteohub,2013-02-13 02:32:00,
2013-02-12 20:37:00,22.5,19.4,29.95,SSW,197,7.0,12.0,88,0.00,,,0.00,meteohub,2013-02-13 02:37:00,
2013-02-12 20:42:00,22.5,19.4,29.94,South,186,9.0,12.0,88,0.00,,,0.00,meteohub,2013-02-13 02:42:00,
2013-02-12 20:47:00,22.5,19.4,29.94,SSW,192,7.0,12.0,88,0.00,,,0.00,meteohub,2013-02-13 02:47:00,
2013-02-12 20:52:00,22.3,19.2,29.94,South,185,11.0,12.0,88,0.00,,,0.00,meteohub,2013-02-13 02:52:00,
2013-02-12 20:57:00,22.5,19.4,29.94,South,188,8.0,12.0,88,0.00,,,0.00,meteohub,2013-02-13 02:57:00,
2013-02-12 21:02:00,22.5,19.4,29.94,SSW,199,9.0,11.0,88,0.00,,,0.00,meteohub,2013-02-13 03:02:00,
2013-02-12 21:07:00,22.5,19.4,29.94,SSW,197,8.0,11.0,88,0.00,,,0.00,meteohub,2013-02-13 03:07:00,
2013-02-12 21:12:00,22.5,19.4,29.94,South,183,9.0,13.0,88,0.00,,,0.00,meteohub,2013-02-13 03:12:00,
2013-02-12 21:17:00,22.3,19.2,29.94,SSW,194,7.0,13.0,88,0.00,,,0.00,meteohub,2013-02-13 03:17:00,
2013-02-12 21:22:00,22.3,19.6,29.93,SSW,198,9.0,13.0,89,0.00,,,0.00,meteohub,2013-02-13 03:22:00,
2013-02-12 21:27:00,22.1,19.4,29.93,SSW,192,8.0,13.0,89,0.00,,,0.00,meteohub,2013-02-13 03:27:00,
2013-02-12 21:32:00,21.9,19.2,29.93,SSW,193,8.0,13.0,89,0.00,,,0.00,meteohub,2013-02-13 03:32:00,
2013-02-12 21:37:00,21.9,19.2,29.92,South,186,9.0,13.0,89,0.00,,,0.00,meteohub,2013-02-13 03:37:00,
2013-02-12 21:42:00,21.9,19.2,29.92,South,190,9.0,12.0,89,0.00,,,0.00,meteohub,2013-02-13 03:42:00,
2013-02-12 21:47:00,21.9,19.2,29.92,SSW,192,7.0,13.0,89,0.00,,,0.00,meteohub,2013-02-13 03:47:00,
2013-02-12 21:52:00,22.1,19.4,29.92,South,191,10.0,13.0,89,0.00,,,0.00,meteohub,2013-02-13 03:52:00,
2013-02-12 21:57:00,22.1,19.4,29.92,SSW,192,7.0,13.0,89,0.00,,,0.00,meteohub,2013-02-13 03:57:00,
2013-02-12 22:02:00,21.9,19.2,29.92,South,191,9.0,13.0,89,0.00,,,0.00,meteohub,2013-02-13 04:02:00,
2013-02-12 22:07:00,21.9,19.2,29.91,South,188,7.0,12.0,89,0.00,,,0.00,meteohub,2013-02-13 04:07:00,
2013-02-12 22:12:00,21.9,19.2,29.91,South,180,8.0,10.0,89,0.00,,,0.00,meteohub,2013-02-13 04:12:00,
2013-02-12 22:17:00,21.7,19.0,29.91,South,186,7.0,11.0,89,0.00,,,0.00,meteohub,2013-02-13 04:17:00,
2013-02-12 22:22:00,21.7,19.0,29.91,SSW,192,7.0,11.0,89,0.00,,,0.00,meteohub,2013-02-13 04:22:00,
2013-02-12 22:27:00,21.7,19.2,29.91,South,184,4.0,11.0,90,0.00,,,0.00,meteohub,2013-02-13 04:27:00,
2013-02-12 22:32:00,21.6,19.0,29.91,SSW,192,6.0,11.0,90,0.00,,,0.00,meteohub,2013-02-13 04:32:00,
2013-02-12 22:37:00,21.6,19.0,29.90,South,178,7.0,12.0,90,0.00,,,0.00,meteohub,2013-02-13 04:37:00,
2013-02-12 22:42:00,21.6,19.0,29.90,South,191,8.0,12.0,90,0.00,,,0.00,meteohub,2013-02-13 04:42:00,
2013-02-12 22:47:00,21.7,19.2,29.90,South,188,6.0,12.0,90,0.00,,,0.00,meteohub,2013-02-13 04:47:00,
2013-02-12 22:52:00,21.7,19.2,29.90,South,188,8.0,11.0,90,0.00,,,0.00,meteohub,2013-02-13 04:52:00,
2013-02-12 22:57:00,21.7,19.2,29.90,SSW,194,7.0,12.0,90,0.00,,,0.00,meteohub,2013-02-13 04:57:00,
2013-02-12 23:00:00,21.9,19.4,29.90,SSW,192,10.0,12.0,90,0.00,,,0.00,meteohub,2013-02-13 05:00:00,
2013-02-12 23:01:00,21.9,19.4,29.90,SSW,194,8.0,12.0,90,0.00,,,0.00,meteohub,2013-02-13 05:01:00,
2013-02-12 23:03:00,21.9,19.4,29.90,South,185,7.0,12.0,90,0.00,,,0.00,meteohub,2013-02-13 05:03:00,
2013-02-12 23:08:00,21.7,19.2,29.89,South,184,8.0,12.0,90,0.00,,,0.00,meteohub,2013-02-13 05:08:00,
2013-02-12 23:13:00,21.7,19.2,29.89,SSW,192,7.0,11.0,90,0.00,,,0.00,meteohub,2013-02-13 05:13:00,
2013-02-12 23:18:00,21.7,19.2,29.89,South,186,9.0,11.0,90,0.00,,,0.00,meteohub,2013-02-13 05:18:00,
2013-02-12 23:23:00,21.7,19.2,29.89,SSW,196,6.0,11.0,90,0.00,,,0.00,meteohub,2013-02-13 05:23:00,
2013-02-12 23:28:00,21.7,19.2,29.89,South,184,8.0,10.0,90,0.00,,,0.00,meteohub,2013-02-13 05:28:00,
2013-02-12 23:34:00,21.7,19.2,29.89,SSW,192,7.0,11.0,90,0.00,,,0.00,meteohub,2013-02-13 05:34:00,
2013-02-12 23:39:00,21.7,19.6,29.89,SSW,193,8.0,11.0,91,0.00,,,0.00,meteohub,2013-02-13 05:39:00,
2013-02-12 23:44:00,21.9,19.8,29.89,South,186,8.0,11.0,91,0.00,,,0.00,meteohub,2013-02-13 05:44:00,
2013-02-12 23:49:00,21.9,19.8,29.89,SSW,192,7.0,12.0,91,0.00,,,0.00,meteohub,2013-02-13 05:49:00,
2013-02-12 23:54:00,21.9,19.8,29.89,South,182,7.0,12.0,91,0.00,,,0.00,meteohub,2013-02-13 05:54:00,
2013-02-12 23:59:00,21.7,19.6,29.89,South,190,7.0,12.0,91,0.00,,,0.00,meteohub,2013-02-13 05:59:00,